Wind_Speed
12 12 12 12 12 12 13 14 13 13 13 13 14 14 14 14 14 14 14 14 14 14 14 14 15 16 16 17 16 17 17 17 17 18 19 20 20 21 22 21 21 21 21
13 13 13 13 14 14 14 15 15 14 14 14 15 14 14 14 15 15 16 16 16 16 16 17 17 17 18 18 18 18 18 19 19 20 21 21 21 22 22 22 22 22 22
15 14 14 15 15 15 15 15 16 16 16 16 15 16 15 16 16 16 16 17 17 18 18 19 19 19 20 21 21 20 21 22 22 22 22 23 23 23 23 24 24 23 23
17 17 17 16 16 16 17 17 17 17 17 16 17 17 17 17 17 17 17 18 19 19 20 21 22 22 22 23 23 23 23 24 24 24 24 24 24 25 25 24 24 24 24
18 19 19 17 17 18 18 18 17 17 17 18 18 17 18 18 18 19 19 19 20 20 21 22 23 23 23 24 24 24 24 24 25 26 26 26 26 25 26 25 25 25 25
18 18 18 18 18 18 18 18 18 18 18 18 18 18 19 19 20 20 21 21 21 21 22 23 24 25 25 24 24 24 25 25 26 27 27 27 27 26 26 26 26 25 25
19 19 20 20 20 19 19 20 20 20 20 19 19 20 20 20 21 21 21 22 22 23 23 24 25 26 26 25 25 24 24 26 26 27 27 27 27 27 26 26 26 26 24
20 20 21 21 20 19 20 20 20 20 20 20 20 20 20 21 21 22 22 23 24 24 24 25 26 26 26 25 25 24 25 25 26 26 26 26 26 26 27 26 25 24 24
21 21 21 21 21 21 20 21 21 21 21 21 21 21 22 22 22 23 23 24 24 25 26 26 26 26 26 26 25 25 25 25 26 26 26 26 26 26 27 26 25 24 24
21 21 21 20 20 20 21 22 22 22 22 21 21 22 22 21 21 22 24 24 24 24 25 25 26 26 27 26 26 26 25 25 26 26 25 25 25 26 26 25 24 24 24
22 22 21 22 22 22 23 23 23 23 23 23 23 23 23 23 23 24 25 25 25 25 26 26 26 26 26 25 25 25 25 25 26 26 26 26 25 25 25 26 26 26 26
23 23 22 22 23 23 24 24 24 24 24 24 25 25 25 25 25 25 26 27 27 27 27 27 26 26 26 26 26 26 26 26 26 26 26 26 26 26 26 26 26 26 26
24 23 23 23 23 24 25 25 25 26 25 25 25 25 26 26 26 26 27 27 27 27 27 26 26 27 27 27 27 26 27 27 27 27 27 27 27 27 27 27 27 27 26
25 25 25 26 26 26 26 27 27 27 26 26 26 26 27 27 28 28 27 27 28 28 27 26 26 26 27 26 26 26 27 28 28 27 27 28 28 28 28 28 28 27 26
26 27 27 27 28 28 28 28 28 28 28 28 27 28 28 28 28 28 28 28 28 28 27 27 27 27 27 27 27 27 27 28 27 27 27 28 28 28 28 27 27 27 26
29 29 29 29 30 30 30 30 29 29 29 30 30 29 29 29 29 29 28 27 27 27 27 27 27 27 28 28 28 28 27 27 27 27 28 28 28 28 28 27 26 26 26
31 32 32 32 32 31 30 30 30 30 30 31 31 30 30 29 29 29 29 28 27 27 27 27 27 26 26 27 27 27 27 28 28 28 28 28 27 27 27 26 26 26 25
33 33 33 33 32 32 32 31 31 31 30 30 30 30 30 29 28 28 28 28 27 27 27 27 27 27 27 27 27 28 27 27 28 28 28 27 27 26 26 26 25 25 26
35 34 34 34 33 33 33 32 32 32 32 31 29 29 29 28 27 27 27 27 27 27 27 27 27 27 28 27 28 28 27 27 28 28 27 27 26 26 26 26 26 26 26
36 35 35 34 34 34 33 33 33 32 32 30 30 29 28 27 27 27 28 28 28 28 27 27 27 28 28 28 28 27 27 27 27 27 27 27 27 27 27 26 26 26 26
36 35 35 35 35 35 34 33 33 32 31 31 30 29 28 28 28 28 28 28 28 28 27 27 28 28 27 27 28 27 27 27 27 28 28 28 28 28 28 27 26 26 26
36 36 35 35 35 34 33 33 33 32 32 31 30 29 28 28 29 29 29 28 28 28 28 28 28 27 27 27 28 28 28 28 28 29 29 29 29 28 27 26 26 25 26
35 36 35 35 35 34 34 33 33 31 31 30 29 29 29 29 29 29 28 28 28 28 28 29 28 28 28 28 28 28 29 29 29 29 28 27 28 27 26 26 26 25 25
34 34 34 34 34 33 33 32 31 30 30 30 30 30 30 30 30 29 28 28 28 28 28 28 28 28 29 29 29 29 29 28 28 27 27 26 26 26 26 26 26 26 26
33 32 32 32 32 31 31 31 31 31 31 31 31 31 30 30 30 30 30 30 30 30 29 29 28 29 29 29 29 28 27 27 27 26 25 26 26 27 27 27 26 26 26
31 31 31 31 30 30 29 29 29 30 30 31 31 30 30 30 30 30 31 31 31 31 30 29 28 28 28 28 28 27 27 27 27 27 26 26 27 26 26 26 25 26 26
Wind_Direction
272 274 273 273 273 274 269 267 268 270 272 274 276 277 279 281 283 286 289 290 291 289 287 288 290 290 292 294 294 292 293 294 295 294 295 294 294 294 294 293 292 290 290
272 273 272 272 272 271 271 269 267 272 277 277 278 276 276 278 281 283 287 288 287 289 290 289 289 290 292 293 292 292 292 293 296 298 296 296 294 293 293 292 290 289 289
274 272 270 271 270 271 273 272 274 278 279 276 279 277 276 278 280 281 284 287 289 289 289 290 289 290 291 292 292 291 291 292 294 296 296 296 295 293 290 289 287 286 287
272 270 270 268 266 269 272 275 278 281 280 280 280 280 278 280 280 281 283 285 287 288 288 289 288 288 289 290 290 290 291 292 292 294 295 294 294 292 290 289 287 286 285
276 272 268 266 268 269 271 273 277 279 278 279 280 281 279 281 281 280 282 285 285 287 287 289 289 288 290 290 290 289 290 292 292 294 294 294 294 293 290 287 287 286 285
273 272 270 271 272 271 271 272 275 277 279 280 279 280 280 280 281 282 283 285 286 287 289 289 290 291 291 291 291 290 290 292 294 294 295 295 295 292 290 288 286 285 284
267 270 271 272 272 273 273 272 273 273 276 279 280 278 279 280 279 282 284 285 286 287 288 289 290 292 292 292 293 292 292 294 295 296 295 295 294 293 292 290 288 285 284
267 269 271 272 272 274 275 274 273 273 274 276 277 280 280 279 278 281 284 284 285 287 287 288 289 291 293 293 293 292 293 295 297 298 297 296 295 295 294 293 292 288 285
272 271 272 275 274 274 275 275 276 276 277 279 278 279 281 280 280 281 284 286 287 289 289 290 291 291 293 292 292 292 293 294 296 299 297 296 296 297 298 295 291 289 288
271 272 272 273 272 273 274 275 276 276 276 278 281 281 283 282 284 286 287 288 290 291 292 291 291 290 290 291 292 293 294 295 296 298 297 297 296 295 295 295 292 289 288
271 270 269 270 270 272 273 274 275 277 278 278 279 280 281 281 283 286 289 290 291 292 292 291 291 291 291 292 293 293 293 295 296 297 296 296 298 297 296 295 292 289 287
270 270 270 269 270 272 274 275 275 277 278 277 278 279 279 281 282 284 287 289 291 293 293 293 294 293 293 294 293 291 291 293 295 296 296 296 297 298 299 297 294 289 288
270 271 272 271 272 273 274 274 275 277 277 277 276 278 280 280 282 284 285 287 290 293 294 291 291 293 295 295 294 292 292 293 294 295 295 294 295 296 297 297 295 292 290
271 271 270 271 273 274 276 277 276 276 276 275 275 277 279 280 280 282 285 286 288 290 290 291 291 292 294 293 293 292 293 293 293 294 295 294 293 293 293 295 295 293 291
271 272 271 272 273 274 275 277 277 276 277 276 274 275 277 278 279 281 284 287 288 288 290 291 292 292 293 292 291 292 292 293 293 294 294 294 294 294 294 295 295 292 289
270 272 273 273 273 274 276 275 275 277 276 275 274 275 275 277 279 282 283 285 288 289 290 290 290 291 291 292 292 293 294 294 294 295 295 294 294 295 295 294 294 293 291
268 271 272 274 275 274 276 277 276 276 275 274 274 274 276 276 278 280 283 286 288 289 290 290 290 290 291 292 293 293 293 293 294 294 294 294 294 295 294 293 293 293 293
267 269 270 272 272 273 274 273 274 274 276 275 273 274 273 274 275 278 281 284 285 287 288 290 291 291 292 294 295 295 294 293 294 294 294 293 293 294 294 294 293 293 293
268 268 269 270 272 272 273 272 274 274 274 273 271 272 273 273 274 277 281 282 283 285 286 288 289 290 291 293 294 294 294 295 294 293 294 293 293 294 295 294 292 292 292
268 269 270 271 271 272 272 272 272 273 272 272 272 272 272 272 273 276 278 280 282 283 285 286 288 290 291 292 293 293 293 294 294 294 293 293 293 294 294 293 292 292 292
267 268 269 270 271 271 272 272 271 270 271 273 275 274 273 273 273 276 277 279 280 281 284 285 287 289 290 292 292 292 291 291 292 293 293 293 292 293 293 292 291 291 291
267 268 269 269 270 270 270 271 271 270 270 270 272 273 274 275 274 275 276 278 280 281 283 284 285 287 288 290 291 290 291 291 291 291 291 291 291 292 293 293 291 290 291
268 268 269 269 269 270 270 270 269 268 268 268 269 271 273 274 273 273 274 275 277 280 282 283 284 286 287 288 291 292 293 292 292 292 290 289 291 293 292 292 291 290 290
267 267 267 268 268 268 268 267 266 267 268 268 269 270 271 271 270 271 274 275 276 278 281 282 283 284 287 289 291 292 293 293 292 292 291 291 291 292 292 290 290 289 289
265 265 265 265 266 266 267 267 267 268 268 269 270 270 269 269 269 271 273 274 276 278 279 281 283 285 286 288 290 291 292 292 293 293 293 292 293 292 292 290 289 290 289
264 263 262 263 264 265 267 268 267 267 267 268 268 267 268 268 269 270 271 274 275 277 278 280 282 283 284 286 287 289 291 292 292 293 292 292 293 293 293 293 292 291 290
Height
5884 5883 5883 5882 5882 5882 5881 5881 5881 5880 5880 5879 5879 5878 5877 5877 5876 5875 5875 5874 5873 5872 5871 5870 5869 5868 5866 5865 5864 5863 5861 5860 5859 5857 5854 5852 5851 5849 5847 5845 5844 5842 5841
5879 5879 5879 5879 5878 5878 5877 5876 5876 5876 5875 5875 5874 5873 5873 5872 5872 5871 5870 5869 5868 5867 5866 5865 5864 5863 5862 5861 5859 5858 5857 5855 5854 5852 5849 5847 5845 5843 5841 5839 5838 5836 5834
5875 5875 5875 5874 5874 5874 5873 5873 5872 5871 5870 5870 5870 5869 5869 5868 5867 5866 5865 5864 5864 5863 5862 5861 5860 5858 5857 5855 5854 5852 5851 5850 5848 5846 5844 5841 5839 5837 5835 5833 5831 5830 5828
5871 5870 5870 5869 5869 5869 5869 5869 5868 5866 5866 5865 5865 5865 5864 5863 5863 5862 5861 5860 5859 5858 5856 5855 5854 5853 5851 5850 5848 5846 5845 5843 5841 5840 5838 5835 5833 5830 5828 5826 5825 5823 5822
5866 5865 5864 5864 5864 5864 5864 5863 5863 5862 5862 5861 5861 5860 5859 5859 5858 5857 5856 5855 5854 5852 5851 5849 5848 5846 5845 5843 5842 5840 5838 5837 5835 5833 5831 5829 5826 5824 5822 5819 5818 5816 5815
5861 5860 5860 5859 5859 5858 5858 5858 5858 5857 5857 5856 5856 5855 5854 5853 5852 5852 5851 5849 5848 5846 5845 5843 5842 5840 5838 5836 5834 5833 5831 5830 5828 5826 5824 5822 5819 5817 5814 5813 5811 5809 5808
5855 5855 5855 5854 5854 5853 5853 5853 5852 5852 5851 5851 5850 5849 5848 5847 5847 5846 5845 5844 5842 5840 5839 5837 5835 5834 5832 5830 5828 5826 5825 5823 5821 5819 5817 5814 5812 5810 5808 5806 5804 5802 5801
5849 5849 5849 5849 5848 5848 5848 5847 5846 5846 5845 5845 5844 5843 5842 5842 5841 5840 5839 5837 5836 5834 5832 5831 5829 5827 5825 5823 5822 5820 5818 5816 5814 5812 5810 5808 5805 5802 5801 5799 5797 5795 5794
5843 5843 5843 5843 5842 5842 5842 5841 5841 5840 5840 5839 5838 5838 5837 5836 5835 5834 5833 5831 5830 5828 5826 5824 5822 5820 5819 5817 5815 5813 5811 5809 5807 5805 5803 5800 5797 5795 5793 5792 5790 5788 5787
5838 5837 5837 5836 5836 5836 5836 5835 5835 5834 5833 5833 5832 5831 5830 5829 5828 5827 5826 5825 5823 5821 5819 5817 5815 5814 5812 5810 5808 5806 5805 5803 5801 5799 5796 5793 5791 5788 5786 5784 5783 5781 5779
5831 5831 5830 5830 5830 5830 5829 5828 5828 5827 5827 5826 5826 5825 5824 5823 5822 5821 5820 5818 5816 5814 5812 5810 5809 5806 5805 5803 5801 5799 5798 5796 5794 5792 5789 5787 5784 5781 5779 5777 5776 5774 5772
5824 5823 5823 5823 5823 5823 5822 5822 5821 5820 5820 5819 5819 5818 5818 5816 5815 5814 5813 5811 5809 5807 5805 5803 5801 5799 5798 5796 5794 5792 5790 5788 5787 5784 5782 5780 5778 5775 5773 5770 5768 5766 5765
5817 5817 5817 5816 5816 5816 5815 5814 5814 5813 5813 5812 5812 5811 5810 5809 5808 5807 5805 5804 5802 5800 5798 5796 5794 5792 5790 5788 5787 5785 5783 5781 5779 5777 5775 5773 5771 5768 5766 5763 5761 5759 5757
5810 5810 5809 5809 5809 5808 5807 5807 5806 5805 5805 5805 5804 5804 5803 5802 5801 5800 5798 5796 5794 5793 5791 5789 5787 5785 5783 5781 5779 5777 5776 5774 5772 5770 5768 5765 5763 5761 5759 5756 5754 5752 5750
5801 5802 5802 5802 5801 5800 5800 5800 5799 5798 5798 5797 5797 5796 5795 5795 5794 5793 5791 5789 5787 5785 5783 5781 5780 5778 5776 5774 5772 5770 5768 5766 5764 5762 5760 5758 5756 5754 5751 5749 5747 5745 5743
5793 5793 5793 5793 5792 5792 5792 5792 5791 5790 5790 5789 5789 5788 5787 5787 5786 5785 5783 5781 5779 5778 5776 5774 5772 5770 5768 5766 5764 5762 5760 5758 5756 5755 5753 5751 5749 5747 5744 5742 5740 5738 5736
5784 5784 5784 5784 5784 5783 5783 5783 5783 5782 5782 5781 5780 5779 5779 5778 5778 5777 5775 5774 5772 5771 5769 5767 5765 5762 5760 5758 5756 5755 5753 5751 5749 5747 5745 5744 5742 5739 5737 5735 5733 5731 5729
5774 5774 5774 5774 5774 5774 5774 5773 5773 5773 5772 5771 5771 5770 5770 5770 5769 5769 5768 5767 5765 5764 5762 5760 5758 5756 5753 5751 5749 5747 5745 5743 5741 5739 5738 5736 5734 5732 5730 5728 5726 5724 5722
5763 5764 5764 5765 5765 5765 5764 5764 5764 5764 5763 5762 5761 5761 5760 5760 5761 5761 5760 5759 5758 5756 5754 5752 5750 5748 5746 5744 5742 5740 5737 5736 5734 5732 5730 5728 5726 5724 5722 5720 5718 5716 5715
5752 5753 5754 5754 5755 5755 5754 5754 5754 5754 5753 5753 5753 5752 5752 5752 5752 5752 5752 5751 5750 5748 5746 5744 5742 5741 5739 5736 5734 5732 5730 5728 5726 5724 5722 5721 5719 5717 5715 5713 5711 5709 5707
5742 5743 5743 5744 5744 5745 5745 5745 5744 5744 5744 5744 5744 5744 5743 5743 5744 5743 5743 5742 5741 5740 5738 5737 5735 5733 5731 5729 5727 5725 5723 5721 5719 5717 5715 5713 5711 5709 5707 5705 5703 5701 5699
5731 5732 5732 5733 5733 5734 5734 5734 5734 5734 5735 5735 5735 5735 5735 5735 5735 5735 5734 5733 5732 5731 5730 5728 5727 5725 5724 5722 5720 5717 5715 5713 5711 5709 5707 5705 5703 5701 5699 5697 5695 5693 5691
5720 5720 5721 5722 5723 5723 5724 5724 5724 5724 5725 5725 5725 5725 5726 5726 5726 5725 5725 5724 5724 5723 5721 5720 5718 5717 5715 5713 5711 5709 5707 5705 5703 5701 5699 5697 5695 5693 5691 5689 5687 5685 5684
5708 5709 5710 5711 5712 5712 5713 5713 5713 5714 5714 5715 5715 5716 5716 5716 5716 5716 5715 5715 5714 5713 5712 5711 5710 5708 5706 5705 5703 5701 5699 5697 5694 5692 5690 5688 5687 5685 5683 5681 5679 5677 5676
5698 5698 5699 5700 5701 5702 5702 5703 5703 5704 5704 5705 5705 5706 5706 5706 5706 5706 5706 5705 5705 5704 5703 5702 5700 5699 5697 5696 5694 5692 5690 5688 5686 5684 5682 5681 5679 5677 5675 5673 5671 5669 5668
5687 5688 5689 5690 5691 5692 5692 5693 5693 5694 5694 5694 5694 5695 5695 5695 5695 5695 5695 5695 5695 5694 5693 5692 5691 5690 5689 5687 5686 5684 5682 5680 5678 5676 5675 5673 5671 5669 5667 5665 5663 5661 5660